Regional Weather Roundup
Issued by NWS

Home | Current Version | Previous Version | Graphics & Text | Print | Product List | Glossary On
Versions: 1 2 3 4 5 6 7 8 9 10 11 12 13 14 15 16 17 18 19 20 21 22 23 24 25 26 27 28 29 30 31 32 33 34 35 36 37 38 39 40 41 42 43 44 45 46 47 48 49 50
254
ASUS45 KTFX 240510
RWRMT
MONTANA REGIONAL WEATHER ROUNDUP
NATIONAL WEATHER SERVICE GREAT FALLS MT
1100 PM MDT THU MAR 23 2017

NOTE: "FAIR" INDICATES FEW OR NO CLOUDS BELOW 12000 FEET WITH NO
SIGNIFICANT WEATHER AND/OR OBSTRUCTIONS TO VISIBILITY.

MTZ001>007-043-240600-
WEST OF THE DIVIDE

CITY           SKY/WX    TMP DP  RH WIND       PRES   REMARKS
KALISPELL      CLEAR     31  24  75 W3        30.06R
MISSOULA       CLEAR     36  26  67 N5        30.07R
BUTTE          CLEAR     31  22  69 SE3       30.04R
MULLAN PASS    CLEAR     24  22  91 SE7       29.99S WCI  16
ANACONDA         N/A     28  21  74 SW5       30.05R
DEER LODGE       N/A     32  21  64 NW5       30.07R
EUREKA           N/A     34  23  64 SE6       30.05S WCI  29
HAMILTON         N/A     36  25  64 CALM      30.06R
PLAINS           N/A     33  23  67 CALM      30.07R
$$

MTZ008-052>055-240600-
SOUTHWEST MONTANA

CITY           SKY/WX    TMP DP  RH WIND       PRES   REMARKS
BOZEMAN        CLEAR     34  26  72 S8        30.01R WCI  27
DILLON         CLEAR     37  21  52 S6        30.02R
W YELLOWSTONE  CLEAR     27  21  80 CALM      30.03R
ENNIS          CLEAR     36  19  51 CALM      30.07R
THREE FORKS      N/A     40  40 100 CALM      30.01R
$$

MTZ009-010-012-014-046-048-049-054-240600-
EAST SLOPES AND CENTRAL MONTANA

CITY           SKY/WX    TMP DP  RH WIND       PRES   REMARKS
CUT BANK       CLEAR     31  21  66 W10       29.96S WCI  22
GREAT FALLS    CLEAR     32  17  54 W7        30.00R WCI  26
MALMSTROM AFB  CLEAR     36  19  50 S3        30.02R
HELENA         CLEAR     43  23  45 SW12      30.02R
AUGUSTA          N/A     34  20  56 W9        29.98S WCI  27
BOWMANS CRNR     N/A     34  19  54 S6        29.98R WCI  28
CHOTEAU          N/A     36  21  55 MISG      30.00R
CONRAD           N/A     27  24  88 S5        30.00S
FAIRFIELD        N/A     33  19  58 SW6       29.98S WCI  27
POWER            N/A     28  19  68 W5        29.99R
RAYNESFORD       N/A     33  20  58 CALM      30.02R
$$

MTZ011-013-016-021-045-047-050-051-240600-
NORTH CENTRAL MONTANA

CITY           SKY/WX    TMP DP  RH WIND       PRES   REMARKS
HAVRE          CLEAR     36  27  69 SW6       29.97R WCI  31
LEWISTOWN      CLEAR     30  19  63 SE5       29.99R
N BAR RANCH      N/A     34  19  55 N5        30.02R
CHINOOK          N/A     39  27  60 SW8       29.96R
DENTON           N/A     39  22  50 W13       29.96R WCI  31
FORT BENTON      N/A     39  21  48 MISG      30.01R
GEYSER           N/A     36  21  54 SW15      30.00R WCI  27
GRASS RANGE      N/A     35  22  59 SW12      29.95S WCI  27
STANFORD         N/A     35  21  56 W9        30.00R WCI  28
WINIFRED         N/A     44  20  38 W5        29.98R
$$

MTZ017>020-022>027-061-062-240600-
NORTHEAST MONTANA

CITY           SKY/WX    TMP DP  RH WIND       PRES   REMARKS
GLASGOW        CLEAR     42  30  62 CALM      29.93R
JORDAN           N/A     36  30  79 W7        29.95R WCI  30
SIDNEY         CLOUDY    42  36  79 N8        29.93R
WOLF POINT     CLEAR     41  35  79 NE7       29.94R
MALTA          CLEAR     34  28  80 CALM      29.94R
PLENTYWOOD       N/A     39  34  81 NE5       29.95R
POPLAR           N/A     43  36  75 N6        29.94R VSB 3/4
SCOBEY           N/A     33  23  67 N1        29.92R
$$

MTZ028>42-056>058-240600-
SOUTHCENTRAL AND SOUTHEAST MONTANA

CITY           SKY/WX    TMP DP  RH WIND       PRES   REMARKS
BAKER          PTCLDY    42  38  85 W14       29.93R
BILLINGS       CLEAR     46  35  65 CALM      29.97R
LIVINGSTON     CLEAR     33  22  63 SW5       30.00R
MILES CITY     CLOUDY    41  31  67 W6        29.94R
BIG TIMBER     CLEAR     39  25  56 N7        30.03R
EKALAKA          N/A     41  36  82 NW2       29.92R
FORSYTH          N/A     48  37  66 SW5       29.96R
HARLOWTON        N/A     37  22  55 W14       30.00R WCI  28
LAUREL           N/A     41  27  57 CALM      29.96F
ROUNDUP          N/A     47  26  44 N2        29.90R
$$

REGIONAL REPORTS...DAKOTAS

CITY           SKY/WX    TMP DP  RH WIND       PRES   REMARKS
WILLISTON      PTCLDY    34  31  88 NE5       29.95R
MINOT          CLOUDY    33  30  88 N5        29.95R
DICKINSON      CLEAR     35  34  96 SW8       29.89F WCI  29
BEACH            N/A    N/A N/A N/A MISG        N/A
TIOGA            N/A     32  32 100 E3        29.96R
WATFORD CITY   MOCLDY    37  36  93 CALM      29.93R
BISMARCK       CLEAR     38  34  85 NW13      29.88F WCI  30
GRAND FORKS    PTCLDY    34  33  96 NW6       29.88F FOG     WCI  29
FARGO          CLOUDY    35  35 100 CALM      29.89R FOG
BUFFALO SD       N/A     41  38  89 NW8       29.84F
RAPID CITY     CLOUDY    40  37  89 NW14      29.90R
$$

REGIONAL REPORTS...WYOMING/IDAHO/WASHINGTON

CITY           SKY/WX    TMP DP  RH WIND       PRES   REMARKS
GILLETTE       CLOUDY    39  39 100 MISG      29.96F
SHERIDAN       PTCLDY    41  34  76 SE5       29.98R
BUFFALO WY     MOCLDY    41  31  67 CALM      29.99S
CODY           CLEAR     39  32  76 SW8       30.00R
YELLOWSTONE LA   N/A     25  20  81 CALM      30.05R
IDAHO FALLS    CLEAR     41  29  62 SW18      30.04R
SALMON         CLEAR     36  21  55 CALM      30.02R
BOISE          CLEAR     45  25  45 SE8       30.04S
SPOKANE        MOCLDY    42  28  57 SE6       30.00F
$$

REGIONAL REPORTS...ALBERTA

CITY           SKY/WX    TMP DP  RH WIND       PRES   REMARKS
EDMONTON       CLEAR     28  25  86 S5        29.96R
CALGARY        MOCLDY    34  23  64 CALM      29.95S
LETHBRIDGE     CLEAR     37  23  56 W13       29.95S WCI  29
MEDICINE HAT   PTCLDY    43  32  65 E7        29.93R
WATERTON GATE    N/A     36  19  51 SW17G23     N/A  WCI  25
CARDSTON         N/A     32  18  55 SW2         N/A
MILK RIVER       N/A     30  23  74 NW5         N/A
$$

REGIONAL REPORTS...SASKATCHEWAN

CITY           SKY/WX    TMP DP  RH WIND       PRES   REMARKS
SWIFT CURRENT  CLEAR     32  28  86 E12       29.94R WCI  23
REGINA         CLEAR     32  27  80 NE9       29.98R WCI  24
SASKATOON      CLEAR     27  21  80 E10       30.05R WCI  17
CYPRESS HILLS    N/A     37  25  60 S3          N/A
VAL MARIE        N/A     30  28  93 NE5         N/A
ROCKGLEN         N/A     39  32  75 N2          N/A
$$




USA.gov is the U.S. government's official web portal to all federal, state and local government web resources and services.